CW4621 Weather Reports


Display with metric or nautical units.
time (UTC)temp
F
wind
direction
speed
MPH
gust
MPH
rain 1hr
in
rain 24hr
in
rain mn
in
humidity
%
barometer
mb
20260905204605 81 15 2.0 6.0 0.00 0.00 0.00 50 1009.1
20260905203604 81 6 0.0 3.0 0.00 0.00 0.00 50 1009.0
20260905202604 82 23 2.0 7.0 0.00 0.00 0.00 48 1009.1
20260905202104 82 346 1.0 3.0 0.00 0.00 0.00 50 1009.1
20260905201605 82 0 1.0 3.0 0.00 0.00 0.00 49 1009.1
20260905201104 82 20 1.0 7.0 0.00 0.00 0.00 48 1009.1
20260905200105 81 30 0.0 1.0 0.00 0.00 0.00 52 1009.2
20260905195604 81 41 0.0 0.0 0.00 0.00 0.00 50 1009.3
20260905195104 81 4 1.0 2.0 0.00 0.00 0.00 49 1009.3
20260905194604 82 16 1.0 3.0 0.00 0.00 0.00 48 1009.4
20260905194104 82 29 0.0 3.0 0.00 0.00 0.00 48 1009.4
20260905193604 82 33 0.0 3.0 0.00 0.00 0.00 49 1009.4
20260905193104 82 226 1.0 3.0 0.00 0.00 0.00 48 1009.4
20260905192604 82 280 1.0 3.0 0.00 0.00 0.00 49 1009.4
20260905192104 82 56 1.0 3.0 0.00 0.00 0.00 49 1009.5
20260905191604 82 33 1.0 3.0 0.00 0.00 0.00 49 1009.5
20260905191104 82 343 1.0 2.0 0.00 0.00 0.00 48 1009.5
20260905190604 82 81 0.0 3.0 0.00 0.00 0.00 48 1009.6
20260905190104 82 7 1.0 3.0 0.00 0.00 0.00 48 1009.5
20260905185604 83 23 1.0 3.0 0.00 0.00 0.00 46 1009.4
20260905185105 83 17 1.0 2.0 0.00 0.00 0.00 46 1009.5
20260905183604 83 213 0.0 3.0 0.00 0.00 0.00 47 1009.5
20260905183105 83 347 2.0 5.0 0.00 0.00 0.00 46 1009.6
20260905182604 83 68 0.0 3.0 0.00 0.00 0.00 46 1009.6
20260905182105 83 31 1.0 7.0 0.00 0.00 0.00 46 1009.7
20260905181104 83 205 1.0 6.0 0.00 0.00 0.00 44 1009.8
20260905180604 83 344 1.0 2.0 0.00 0.00 0.00 45 1009.8
20260905180104 82 346 1.0 5.0 0.00 0.00 0.00 44 1009.8
20260905175605 82 356 2.0 6.0 0.00 0.00 0.00 45 1009.9
20260905175104 82 30 2.0 3.0 0.00 0.00 0.00 46 1009.9
20260905174604 82 1 1.0 5.0 0.00 0.00 0.00 47 1009.9
20260905174104 82 244 1.0 7.0 0.00 0.00 0.00 47 1009.9
20260905173604 82 318 1.0 6.0 0.00 0.00 0.00 46 1010.0
20260905173104 82 349 1.0 5.0 0.00 0.00 0.00 47 1010.0
20260905172604 82 10 1.0 3.0 0.00 0.00 0.00 47 1010.0
20260905172104 82 340 1.0 3.0 0.00 0.00 0.00 47 1010.0
20260905171604 82 347 2.0 6.0 0.00 0.00 0.00 45 1010.1
20260905170604 82 19 1.0 7.0 0.00 0.00 0.00 48 1010.0
20260905170104 82 43 2.0 3.0 0.00 0.00 0.00 47 1009.9
20260905165604 82 21 2.0 5.0 0.00 0.00 0.00 48 1010.0
20260905165104 82 77 2.0 6.0 0.00 0.00 0.00 47 1010.1
20260905164604 82 35 0.0 7.0 0.00 0.00 0.00 49 1010.2
20260905164104 82 21 2.0 9.0 0.00 0.00 0.00 47 1010.2
20260905163604 81 82 2.0 5.0 0.00 0.00 0.00 49 1010.1
20260905163104 82 330 3.0 6.0 0.00 0.00 0.00 51 1010.2
20260905162604 81 332 2.0 6.0 0.00 0.00 0.00 51 1010.2
20260905162104 81 17 2.0 5.0 0.00 0.00 0.00 51 1010.4
20260905161604 81 350 1.0 8.0 0.00 0.00 0.00 52 1010.5
20260905160604 81 341 3.0 7.0 0.00 0.00 0.00 51 1010.4
20260905160104 81 26 2.0 5.0 0.00 0.00 0.00 52 1010.4
20260905155604 81 34 2.0 5.0 0.00 0.00 0.00 52 1010.4
20260905154604 81 42 1.0 5.0 0.00 0.00 0.00 53 1010.4
20260905154105 81 6 1.0 3.0 0.00 0.00 0.00 53 1010.5
20260905153605 80 245 2.0 5.0 0.00 0.00 0.00 54 1010.4
20260905153104 80 33 2.0 3.0 0.00 0.00 0.00 54 1010.5
20260905152604 80 62 2.0 7.0 0.00 0.00 0.00 55 1010.6
20260905152104 80 33 1.0 3.0 0.00 0.00 0.00 56 1010.7
20260905151605 80 306 1.0 3.0 0.00 0.00 0.00 57 1010.7
20260905151104 79 40 1.0 3.0 0.00 0.00 0.00 56 1010.6
20260905150605 79 22 1.0 3.0 0.00 0.00 0.00 56 1010.6
20260905150105 79 353 1.0 3.0 0.00 0.00 0.00 56 1010.5
20260905145604 79 54 1.0 5.0 0.00 0.00 0.00 57 1010.6
20260905145106 78 42 1.0 3.0 0.00 0.00 0.00 58 1010.5
20260905144604 77 330 1.0 3.0 0.00 0.00 0.00 58 1010.6
20260905144105 77 349 1.0 3.0 0.00 0.00 0.00 59 1010.5
20260905143605 77 11 2.0 5.0 0.00 0.00 0.00 60 1010.4
20260905143104 77 322 1.0 3.0 0.00 0.00 0.00 61 1010.4
20260905142604 77 34 1.0 3.0 0.00 0.00 0.00 61 1010.4
20260905142105 77 329 1.0 3.0 0.00 0.00 0.00 61 1010.3
20260905141605 77 303 1.0 2.0 0.00 0.00 0.00 62 1010.4
20260905141105 77 1 1.0 5.0 0.00 0.00 0.00 63 1010.3
20260905140605 76 90 2.0 5.0 0.00 0.00 0.00 62 1010.3
20260905140104 76 49 1.0 3.0 0.00 0.00 0.00 62 1010.3
20260905135604 76 33 1.0 3.0 0.00 0.00 0.00 62 1010.2
20260905135105 76 72 0.0 3.0 0.00 0.00 0.00 64 1010.2
20260905134605 76 24 1.0 5.0 0.00 0.00 0.00 63 1010.1
20260905134104 75 323 1.0 2.0 0.00 0.00 0.00 64 1010.2
20260905133605 75 26 1.0 3.0 0.00 0.00 0.00 65 1010.2
20260905132105 73 359 0.0 1.0 0.00 0.00 0.00 66 1010.2
20260905131604 73 37 0.0 2.0 0.00 0.00 0.00 66 1010.1
20260905131104 73 348 1.0 3.0 0.00 0.00 0.00 66 1010.3
20260905130605 73 28 0.0 1.0 0.00 0.00 0.00 66 1010.3
20260905125604 73 344 1.0 2.0 0.00 0.00 0.00 66 1010.3
20260905125105 73 343 1.0 3.0 0.00 0.00 0.00 66 1010.3
20260905124604 73 355 0.0 1.0 0.00 0.00 0.00 66 1010.4
20260905124104 73 340 0.0 2.0 0.00 0.00 0.00 67 1010.4
20260905123604 73 42 0.0 1.0 0.00 0.00 0.00 66 1010.3
20260905123105 73 32 1.0 3.0 0.00 0.00 0.00 66 1010.5
20260905122605 73 255 0.0 1.0 0.00 0.00 0.00 66 1010.5
20260905122104 73 330 1.0 3.0 0.00 0.00 0.00 67 1010.5
20260905121605 73 308 1.0 3.0 0.00 0.00 0.00 67 1010.5
20260905120104 73 27 0.0 1.0 0.00 0.00 0.00 66 1010.6
20260905115605 73 26 0.0 2.0 0.00 0.00 0.00 66 1010.3
20260905115104 73 346 0.0 2.0 0.00 0.00 0.00 66 1010.4
20260905114605 73 13 0.0 2.0 0.00 0.00 0.00 66 1010.3
20260905114104 73 10 1.0 3.0 0.00 0.00 0.00 66 1010.1
20260905113605 73 37 0.0 2.0 0.00 0.00 0.00 67 1010.1
20260905113105 72 3 1.0 3.0 0.00 0.00 0.00 66 1010.0
20260905112605 73 322 0.0 2.0 0.00 0.00 0.00 67 1010.1
20260905111605 73 278 0.0 1.0 0.00 0.00 0.00 66 1010.1
20260905111104 73 32 0.0 1.0 0.00 0.00 0.00 67 1010.0
20260905110604 73 32 0.0 2.0 0.00 0.00 0.00 67 1009.9
20260905110105 73 18 0.0 1.0 0.00 0.00 0.00 66 1009.7
20260905105105 73 154 0.0 0.0 0.00 0.00 0.00 65 1009.8
20260905104605 73 153 0.0 1.0 0.00 0.00 0.00 65 1009.7
20260905104104 73 154 0.0 0.0 0.00 0.00 0.00 66 1009.6
20260905103105 73 70 0.0 3.0 0.00 0.00 0.00 65 1009.6
20260905102104 73 56 0.0 3.0 0.00 0.00 0.00 66 1009.4
20260905101605 73 31 1.0 3.0 0.00 0.00 0.00 67 1009.4
20260905101104 73 24 0.0 3.0 0.00 0.00 0.00 68 1009.4
20260905100604 72 176 0.0 2.0 0.00 0.00 0.00 69 1009.3
20260905100104 72 359 0.0 1.0 0.00 0.00 0.00 70 1009.3
20260905095604 72 359 0.0 1.0 0.00 0.00 0.00 70 1009.3
20260905094105 72 358 0.0 0.0 0.00 0.00 0.00 70 1009.3
20260905093105 72 358 0.0 0.0 0.00 0.00 0.00 70 1009.3
20260905092604 72 358 0.0 0.0 0.00 0.00 0.00 70 1009.3
20260905092105 72 358 0.0 0.0 0.00 0.00 0.00 71 1009.3
20260905091604 72 358 0.0 1.0 0.00 0.00 0.00 71 1009.3
20260905091104 72 340 0.0 0.0 0.00 0.00 0.00 71 1009.4
20260905090605 72 340 0.0 1.0 0.00 0.00 0.00 72 1009.4
20260905090104 72 340 0.0 0.0 0.00 0.00 0.00 72 1009.4
20260905085605 72 334 0.0 0.0 0.00 0.00 0.00 73 1009.4
20260905085104 72 334 0.0 0.0 0.00 0.00 0.00 73 1009.3
20260905084604 72 334 0.0 0.0 0.00 0.00 0.00 73 1009.3
20260905084104 72 334 0.0 0.0 0.00 0.00 0.00 73 1009.3
20260905083604 72 334 0.0 0.0 0.00 0.00 0.00 74 1009.2
20260905083105 72 334 0.0 0.0 0.00 0.00 0.00 74 1009.2
20260905082605 72 334 0.0 0.0 0.00 0.00 0.00 74 1009.2
20260905082104 72 334 0.0 0.0 0.00 0.00 0.00 74 1009.2
20260905081104 72 334 0.0 0.0 0.00 0.00 0.00 73 1009.2
20260905080604 72 334 0.0 0.0 0.00 0.00 0.00 73 1009.2
20260905080105 72 334 0.0 0.0 0.00 0.00 0.00 72 1009.1
20260905075604 73 334 0.0 0.0 0.00 0.00 0.00 72 1009.1
20260905075104 73 334 0.0 0.0 0.00 0.00 0.00 72 1009.1
20260905074604 73 334 0.0 0.0 0.00 0.00 0.00 71 1009.2
20260905073104 73 334 0.0 0.0 0.00 0.00 0.00 74 1009.4
20260905072605 72 334 0.0 2.0 0.00 0.00 0.00 75 1009.4
20260905072104 72 359 0.0 1.0 0.00 0.00 0.00 78 1009.3
20260905071605 73 305 0.0 0.0 0.00 0.00 0.00 79 1009.4
20260905071104 73 304 0.0 0.0 0.00 0.00 0.00 79 1009.3
20260905070604 73 304 0.0 0.0 0.00 0.00 0.00 79 1009.4
20260905070105 73 304 0.0 0.0 0.00 0.00 0.00 79 1009.3
20260905065604 73 304 0.0 0.0 0.00 0.00 0.00 79 1009.4
20260905065104 73 304 0.0 0.0 0.00 0.00 0.00 79 1009.4
20260905064604 73 304 0.0 0.0 0.00 0.00 0.00 79 1009.5
20260905064105 73 304 0.0 0.0 0.00 0.00 0.00 79 1009.5
20260905063604 73 304 0.0 0.0 0.00 0.00 0.00 79 1009.5
20260905062605 73 304 0.0 0.0 0.00 0.00 0.00 78 1009.7
20260905062105 73 304 0.0 0.0 0.00 0.00 0.00 78 1009.8
20260905061604 73 304 0.0 0.0 0.00 0.00 0.00 78 1009.8
20260905060604 74 304 0.0 1.0 0.00 0.00 0.00 78 1009.8
20260905060104 74 302 0.0 0.0 0.00 0.00 0.00 78 1009.8
20260905055604 74 302 0.0 0.0 0.00 0.00 0.00 78 1009.8
20260905055104 74 302 0.0 0.0 0.00 0.00 0.00 77 1009.8
20260905054604 74 302 0.0 1.0 0.00 0.00 0.00 76 1009.8
20260905053604 75 302 0.0 0.0 0.00 0.00 0.00 75 1009.9
20260905053104 75 302 0.0 0.0 0.00 0.00 0.00 73 1009.8
20260905052604 75 302 0.0 0.0 0.00 0.00 0.00 72 1009.8
20260905052104 76 302 0.0 0.0 0.00 0.00 0.00 71 1009.7
20260905051604 76 302 0.0 1.0 0.00 0.00 0.00 70 1009.9
20260905051104 76 302 0.0 1.0 0.00 0.00 0.00 68 1010.1
20260905050104 77 351 1.0 2.0 0.00 0.00 0.00 67 1010.4
20260905045604 77 4 0.0 1.0 0.00 0.01 0.00 69 1010.3
20260905045104 77 4 0.0 1.0 0.00 0.11 0.00 69 1010.1
20260905044604 77 240 0.0 1.0 0.00 0.12 0.00 70 1010.2
20260905044105 77 239 1.0 2.0 0.00 0.12 0.00 70 1010.3
20260905043104 77 345 0.0 0.0 0.00 0.16 0.00 71 1010.1
20260905042604 77 345 0.0 0.0 0.00 0.19 0.00 72 1010.0
20260905042105 77 345 0.0 2.0 0.00 0.19 0.00 72 1010.1
20260905041104 78 359 0.0 0.0 0.00 0.19 0.00 72 1010.1
20260905040604 77 359 0.0 0.0 0.00 0.19 0.00 72 1010.1
20260905040104 77 359 0.0 1.0 0.00 0.19 0.00 72 1010.1
20260905035604 77 359 0.0 0.0 0.00 0.19 0.19 73 1010.1
20260905035104 78 24 0.0 0.0 0.00 0.19 0.19 73 1010.1
20260905034604 78 24 0.0 0.0 0.00 0.19 0.19 74 1010.0
20260905033604 78 24 0.0 0.0 0.00 0.19 0.19 74 1010.1
20260905033104 78 24 0.0 0.0 0.00 0.19 0.19 74 1010.1
20260905032604 78 24 0.0 0.0 0.00 0.19 0.19 74 1010.2
20260905032104 78 24 0.0 0.0 0.00 0.19 0.19 74 1010.1
20260905031604 78 24 0.0 0.0 0.00 0.19 0.19 74 1010.0
20260905030604 78 24 0.0 0.0 0.00 0.19 0.19 74 1010.0
20260905025604 78 24 0.0 0.0 0.00 0.19 0.19 74 1010.1
20260905025105 78 24 0.0 0.0 0.00 0.19 0.19 74 1010.1
20260905024604 78 24 0.0 0.0 0.00 0.19 0.19 74 1010.0
20260905024105 78 24 0.0 0.0 0.00 0.19 0.19 73 1010.0
20260905023604 78 24 0.0 0.0 0.00 0.19 0.19 74 1010.0
20260905023105 78 24 0.0 0.0 0.00 0.19 0.19 74 1010.1
20260905022606 78 24 0.0 0.0 0.00 0.19 0.19 73 1010.1
20260905022105 78 24 0.0 0.0 0.00 0.19 0.19 73 1010.1
20260905021604 78 24 0.0 0.0 0.00 0.19 0.19 73 1010.2
20260905021105 78 24 0.0 0.0 0.00 0.19 0.19 73 1010.1
20260905020604 78 24 0.0 0.0 0.00 0.19 0.19 72 1010.0
20260905020105 79 24 0.0 0.0 0.00 0.19 0.19 72 1010.0
20260905015604 79 24 0.0 0.0 0.00 0.19 0.19 72 1009.9
20260905014605 79 24 0.0 0.0 0.00 0.19 0.19 72 1009.9
20260905013605 79 24 0.0 0.0 0.00 0.19 0.19 71 1010.0
20260905013104 79 24 0.0 0.0 0.00 0.19 0.19 71 1010.0
20260905012604 79 24 0.0 0.0 0.00 0.19 0.19 71 1010.0
20260905011605 80 24 0.0 0.0 0.00 0.19 0.19 70 1010.1
20260905011105 80 24 0.0 0.0 0.00 0.19 0.19 70 1010.2
20260905010605 80 24 0.0 0.0 0.00 0.19 0.19 70 1010.2
20260905010104 80 24 0.0 0.0 0.00 0.19 0.19 70 1010.2
20260905005605 80 24 0.0 0.0 0.00 0.19 0.19 69 1010.1
20260905005105 80 24 0.0 0.0 0.00 0.19 0.19 69 1010.0
20260905004606 80 24 0.0 0.0 0.00 0.19 0.19 69 1010.0
20260905004105 80 24 0.0 0.0 0.00 0.19 0.19 68 1009.9
20260905003605 80 24 0.0 0.0 0.00 0.19 0.19 68 1009.8
20260905003105 80 24 0.0 0.0 0.00 0.19 0.19 68 1009.8
20260905001604 81 24 0.0 0.0 0.00 0.19 0.19 68 1009.6
20260905001104 81 24 0.0 0.0 0.00 0.19 0.19 67 1009.6
20260905000605 81 23 0.0 0.0 0.00 0.19 0.19 67 1009.5
20260904235604 81 23 0.0 0.0 0.00 0.19 0.19 67 1009.6
20260904235104 81 58 0.0 0.0 0.00 0.19 0.19 66 1009.5
20260904234605 81 75 0.0 0.0 0.00 0.19 0.19 66 1009.6
20260904234106 82 18 0.0 2.0 0.00 0.19 0.19 66 1009.6
20260904233604 82 274 0.0 1.0 0.00 0.19 0.19 65 1009.7
20260904233104 82 266 0.0 1.0 0.00 0.19 0.19 65 1009.7
20260904232604 82 347 0.0 1.0 0.00 0.19 0.19 64 1009.6
20260904232104 83 0 0.0 3.0 0.00 0.19 0.19 64 1009.7
20260904231604 83 354 0.0 3.0 0.00 0.19 0.19 64 1009.7
20260904231105 83 247 0.0 2.0 0.00 0.19 0.19 63 1009.8
20260904230604 83 20 0.0 2.0 0.00 0.19 0.19 63 1009.8
20260904230104 83 271 0.0 1.0 0.00 0.19 0.19 62 1009.7
20260904225604 83 34 0.0 3.0 0.00 0.19 0.19 61 1009.8
20260904225104 83 10 0.0 3.0 0.00 0.19 0.19 61 1009.8
20260904224605 84 38 1.0 3.0 0.00 0.19 0.19 61 1009.9
20260904223604 84 231 1.0 5.0 0.00 0.19 0.19 60 1009.7
20260904223105 84 358 2.0 3.0 0.00 0.19 0.19 60 1009.7
20260904222605 84 139 1.0 3.0 0.00 0.19 0.19 60 1009.8
20260904222105 84 306 0.0 3.0 0.00 0.19 0.19 60 1009.7
20260904221104 85 314 0.0 9.0 0.00 0.19 0.19 59 1009.8
20260904220605 85 317 1.0 3.0 0.00 0.19 0.19 59 1009.8
20260904215604 85 312 1.0 3.0 0.00 0.19 0.19 58 1009.8
20260904215105 85 343 2.0 5.0 0.00 0.19 0.19 58 1009.9
20260904214104 86 342 0.0 2.0 0.00 0.19 0.19 58 1010.0
20260904213604 86 350 1.0 5.0 0.00 0.19 0.19 57 1010.0
20260904213105 86 18 1.0 2.0 0.00 0.19 0.19 57 1010.0
20260904212605 86 255 1.0 3.0 0.00 0.19 0.19 57 1010.0
20260904211604 87 357 2.0 5.0 0.00 0.19 0.19 56 1009.8
20260904211105 87 312 1.0 3.0 0.00 0.19 0.19 56 1009.7
20260904210604 88 86 1.0 3.0 0.00 0.19 0.19 55 1009.6
20260904210104 88 321 1.0 3.0 0.00 0.19 0.19 55 1009.5
20260904205104 88 334 2.0 3.0 0.00 0.19 0.19 56 1009.5